Regional Weather Roundup
Issued by NWS

Home | Current Version | Previous Version | Graphics & Text | Print | Product List | Glossary Off
Versions: 1 2 3 4 5 6 7 8 9 10 11 12 13 14 15 16 17 18 19 20 21 22 23 24 25 26 27 28 29 30 31 32 33 34 35 36 37 38 39 40 41 42 43 44 45 46 47 48 49 50

664
ASUS43 KTOP 270559
RWRKS

WEATHER ROUNDUP FOR KANSAS
NATIONAL WEATHER SERVICE GOODLAND KS
100 AM CDT WED JUL 27 2016

NOTE:  "FAIR" INDICATES FEW OR NO CLOUDS BELOW 12,000 FEET WITH NO
SIGNIFICANT WEATHER AND/OR OBSTRUCTIONS TO VISIBILITY.

KSZ001>006-013>018-027>032-041>047-270700-
NORTHWEST KANSAS

CITY           SKY/WX    TMP DP  RH WIND       PRES   REMARKS
GOODLAND       PTCLDY    69  54  58 S10       30.05F
6HR MIN TEMP:  66; 6HR MAX TEMP:  87; 6HR PCP:  0.14;

HAYS           CLOUDY    73  64  73 SE7       30.02S
HILL CITY      CLOUDY    78  66  66 SE8       30.02R
6HR MIN TEMP:  77; 6HR MAX TEMP:  88;

RUSSELL        CLOUDY    74  69  85 SE8       30.01S
6HR MIN TEMP:  74; 6HR MAX TEMP:  89;

$$

KSZ061>065-074>080-084>089-270700-
SOUTHWEST KANSAS

CITY           SKY/WX    TMP DP  RH WIND       PRES   REMARKS
DODGE CITY     CLEAR     70  66  87 SE3       30.05F
6HR MIN TEMP:  70; 6HR MAX TEMP:  87;

ELKHART          N/A     72  64  76 SE10        N/A
GARDEN CITY    PTCLDY    71  66  84 NW5       30.07F
6HR MIN TEMP:  70; 6HR MAX TEMP:  86;

GREAT BEND     PTCLDY    73  64  73 SE6       30.02S
LIBERAL        CLEAR     72  63  73 S6        30.08S
$$

KSZ066>073-081>083-090>101-270700-
SOUTHEAST KANSAS

CITY           SKY/WX    TMP DP  RH WIND       PRES   REMARKS
CHANUTE        CLEAR     73  71  93 CALM      29.99R
6HR MIN TEMP:  73; 6HR MAX TEMP:  87; 6HR PCP: TRACE;

COFFEYVILLE    PTCLDY    73  72  96 CALM      29.97R
6HR MIN TEMP:  73; 6HR MAX TEMP:  79;

HUTCHINSON     CLEAR     73  70  90 E5        30.00F
6HR MIN TEMP:  73; 6HR MAX TEMP:  89;

NEWTON         CLEAR     74  72  93 E3        30.01F
PARSONS        CLEAR     73  71  93 CALM      29.99R
6HR MIN TEMP:  72; 6HR MAX TEMP:  81; 6HR PCP: TRACE;

WICHITA INTL   PTCLDY    77  72  84 SE7       29.99S
6HR MIN TEMP:  77; 6HR MAX TEMP:  89;

WICHITA JABRA  CLEAR     74  72  93 E3        29.99F
6HR MIN TEMP:  74; 6HR MAX TEMP:  86;

WICHITA MCCONL CLEAR     76  72  87 SE3       29.99F
WINFIELD       CLEAR     76  72  87 E6        29.99S
6HR MIN TEMP:  76; 6HR MAX TEMP:  88;

$$

KSZ007>012-019>026-033>040-048>060-102>105-270700-
NORTHEAST KANSAS

CITY           SKY/WX    TMP DP  RH WIND       PRES   REMARKS
CONCORDIA      MOCLDY    71  67  87 CALM      30.03R
6HR MIN TEMP:  71; 6HR MAX TEMP:  83;

EMPORIA        CLEAR     71  69  93 CALM      30.00S
6HR MIN TEMP:  71; 6HR MAX TEMP:  85;

LAWRENCE       CLEAR     67  65  93 NW5       30.00R
6HR MIN TEMP:  67; 6HR MAX TEMP:  86;

MANHATTAN      PTCLDY    71  68  90 NE3       30.01R
6HR MIN TEMP:  71; 6HR MAX TEMP:  86;

OLATHE IND     CLEAR     71  67  87 NE5       30.01R
6HR MIN TEMP:  71; 6HR MAX TEMP:  86;

OLATHE EXE     CLEAR     73  67  81 NE6       30.01R
6HR MIN TEMP:  73; 6HR MAX TEMP:  83;

SALINA         PTCLDY    74  68  81 CALM      30.01S
6HR MIN TEMP:  73; 6HR MAX TEMP:  90;

TOPEKA BILLARD CLEAR     71  69  93 CALM      30.00R
6HR MIN TEMP:  71; 6HR MAX TEMP:  88;

TOPEKA FORBES  CLEAR     71  68  90 CALM      30.00S
6HR MIN TEMP:  71; 6HR MAX TEMP:  88;

$$




USA.gov is the U.S. government's official web portal to all federal, state and local government web resources and services.